Погода в Моржегорах

Россия / Архангельская область     63°03′05″N   42°08′57″E
темп.,
°C
ветер,
м/с
пор.,
м/с
влажн.,
%
обл.,
%
осадки,
мм/ч
давл.,
гПа
погр.,
м
18 мая, вт
вт1800:00+12юв31080100 0.0 1018250
03:00+11юв398987 0.0 1019228
06:00+13юв31079100 0.0 1019327
09:00+19юв585789 0.0 1018774
12:00+22юв5747100 0.0 10171157
15:00+24ююв584299 0.0 10161335
18:00+24ююв594987 0.0 10141272
21:00+20юв413685 0.0 1014469
19 мая, ср
ср1900:00+17ююв4148360 0.2 1014391
03:00+15юв311945 0.2 1014260
06:00+17юв3987100 0.3 1014319
09:00+24ююв485847 0.3 1013748
12:00+28ю593861 0.0 10131542
15:00+30ююз57275 0.0 10122468
18:00+29ю37335 0.0 1012815
21:00+23ююв414480 0.0 1012472
20 мая, чт
чт2000:00+20ююв414670 0.0 1012476
03:00+17юв310810 0.0 1012299
06:00+19ююв410696 0.0 1012393
09:00+24ююв47515 0.0 1011810
12:00+28ю58380 0.0 10101543
15:00+30ю58265 0.0 10093072
18:00+29ююв58335 0.0 10082081
21:00+23ю513430 0.0 1008686
21 мая, пт
пт2100:00+19ююв412590 0.0 1008447
03:00+17юв31172100 0.0 1008363
06:00+19ююв411690 0.0 1007599
09:00+23ю595022 0.0 10051416
12:00+24ююв61046100 0.1 10032224
15:00+22ю5105537 1.6 10031529
18:00+19ю5106999 0.9 10011137
21:00+16ю4108287 2.7 1000643
22 мая, сб
сб2200:00+14ююз3891100 1.7 1000337
03:00+12зюз51191100 3.8 1001713
06:00+10зюз51186100 1.4 10031002
09:00+13зюз6127120 1.8 10051415
12:00+15зюз7125999 0.4 10071731
15:00+16зюз6115157 0.6 10092056
18:00+16зюз610595 0.4 10111526
21:00+13зюз410615 0.4 1013539